BEIDOU-2 G1

Last updated on Wed Sep 09 2026 00:02:59 GMT+0000 (Coordinated Universal Time)

1 36287U 10001A 26251.40157296 -.00000299 00000+0 00000+0 0 9997 2 36287 4.4845 60.0489 0002076 245.7148 326.7488 1.00270397 61000
UTC large
Height (km)
Speed (km/s)
/
Latitude / Longitude
Inclination (degrees)
Orbital Period (minutes)
Azimuth
Elevation
Range (km)
Doppler Factor

Next 0 passes for location: London (51.5072 / 0.1276)

No passes found over London.
BEIDOU-2 G1